TFL5606 LEIB-EHAM

Flight info

Callsign TFL5606
Flight time 2h 3m
Altitude 38000
Route EPAMA4E EPAMA N856 EBROX Z26 LATRO DCT OLOXO DCT OKABI DCT TOU DCT ADABI DCT BOKNO UN858 VANAD UN874 BAMES UT191 PODEM DCT BAZOS DCT LUMIL DCT BELOB UY873 DENUT DENUT3A
Aircraft B738/M-SDE3/L

Departure

Time 2026-05-04 11:08
Airport Ibiza Airport (LEIB)

Arrival

Time 2026-05-04 13:11
Airport Amsterdam Airport Schiphol (EHAM)
Time Latitude Longitude Altitude Speed Heading
2026-05-04 10:41 38.87620 1.37059 7 ft 0 kts 332°
2026-05-04 10:58 38.87615 1.37063 8 ft 3 kts 333°
2026-05-04 10:59 38.87597 1.37074 9 ft 3 kts 342°
2026-05-04 10:59 38.87577 1.37080 9 ft 3 kts 358°
2026-05-04 10:59 38.87558 1.37077 7 ft 3 kts 28°
2026-05-04 10:59 38.87548 1.37067 10 ft 1 kts 62°
2026-05-04 11:00 38.87547 1.37066 7 ft 0 kts 62°
2026-05-04 11:01 38.87557 1.37090 8 ft 5 kts 62°
2026-05-04 11:02 38.87573 1.37128 7 ft 5 kts 62°
2026-05-04 11:02 38.87599 1.37192 7 ft 11 kts 62°
2026-05-04 11:05 38.87993 1.38572 8 ft 16 kts 62°
2026-05-04 11:06 38.87981 1.38653 9 ft 10 kts 156°
2026-05-04 11:06 38.87919 1.38687 10 ft 10 kts 157°
2026-05-04 11:06 38.87861 1.38706 10 ft 7 kts 202°
2026-05-04 11:06 38.87841 1.38658 12 ft 0 kts 243°
2026-05-04 11:08 38.84982 1.31483 3717 ft 208 kts 244°
2026-05-04 11:10 38.88056 1.20089 9793 ft 264 kts 319°
2026-05-04 11:12 39.01856 1.18404 14191 ft 373 kts 11°
2026-05-04 11:12 39.04371 1.19288 14946 ft 377 kts 11°
2026-05-04 11:12 39.06923 1.20172 15702 ft 382 kts 10°
2026-05-04 11:12 39.09500 1.21048 16430 ft 387 kts
2026-05-04 11:13 39.12126 1.21929 17159 ft 393 kts
2026-05-04 11:13 39.14752 1.22805 17913 ft 397 kts
2026-05-04 11:13 39.17444 1.23699 18588 ft 402 kts
2026-05-04 11:13 39.20172 1.24604 19209 ft 407 kts
2026-05-04 11:16 39.48247 1.33956 24667 ft 452 kts
2026-05-04 11:16 39.51306 1.34981 25138 ft 456 kts
2026-05-04 11:16 39.54389 1.36014 25590 ft 460 kts
2026-05-04 11:17 39.57458 1.37043 26051 ft 463 kts
2026-05-04 11:17 39.60606 1.37921 26506 ft 459 kts 359°
2026-05-04 11:19 39.82841 1.35010 29459 ft 470 kts 347°
2026-05-04 11:19 39.86109 1.34578 29830 ft 473 kts 347°
2026-05-04 11:19 39.89402 1.34144 30167 ft 476 kts 347°
2026-05-04 11:19 39.92706 1.33709 30478 ft 479 kts 347°
2026-05-04 11:20 39.96037 1.33269 30800 ft 481 kts 347°
2026-05-04 11:20 39.99374 1.32827 31110 ft 483 kts 347°
2026-05-04 11:20 40.02726 1.32382 31427 ft 486 kts 347°
2026-05-04 11:20 40.06097 1.31932 31700 ft 488 kts 347°
2026-05-04 11:22 40.29637 1.28789 34376 ft 484 kts 346°
2026-05-04 11:22 40.32991 1.28339 34738 ft 483 kts 346°
2026-05-04 11:23 40.36335 1.27890 35097 ft 481 kts 346°
2026-05-04 11:23 40.39660 1.27442 35425 ft 480 kts 346°
2026-05-04 11:24 40.59449 1.24760 37388 ft 474 kts 346°
2026-05-04 11:25 40.62730 1.24314 37719 ft 472 kts 346°
2026-05-04 11:25 40.66011 1.23867 37967 ft 473 kts 346°
2026-05-04 11:25 40.69326 1.23536 37955 ft 484 kts 353°
2026-05-04 11:26 40.76047 1.24782 37979 ft 497 kts
2026-05-04 11:27 40.99129 1.33333 37979 ft 490 kts
2026-05-04 11:28 41.05718 1.35702 37970 ft 491 kts
2026-05-04 11:28 41.12320 1.38082 37969 ft 492 kts
2026-05-04 11:29 41.18932 1.40475 37971 ft 493 kts
2026-05-04 11:29 41.25559 1.42880 37954 ft 494 kts
2026-05-04 11:33 41.72027 1.59889 37951 ft 493 kts 10°
2026-05-04 11:33 41.78697 1.61438 37974 ft 481 kts 355°
2026-05-04 11:34 41.85251 1.60701 37949 ft 471 kts 345°
2026-05-04 11:34 41.91706 1.59579 37950 ft 470 kts 345°
2026-05-04 11:35 41.98210 1.58498 37952 ft 470 kts 346°
2026-05-04 11:35 42.04712 1.57521 37949 ft 474 kts 351°
2026-05-04 11:36 42.11379 1.57644 37957 ft 481 kts 356°
2026-05-04 11:36 42.18076 1.58054 37892 ft 480 kts 356°
2026-05-04 11:37 42.21405 1.58248 38011 ft 479 kts 356°
2026-05-04 11:37 42.24746 1.58421 37969 ft 480 kts 356°
2026-05-04 11:37 42.31397 1.58719 37956 ft 482 kts 355°
2026-05-04 11:38 42.38105 1.58996 37971 ft 482 kts 356°
2026-05-04 11:38 42.44838 1.59268 37974 ft 484 kts 356°
2026-05-04 11:39 42.51543 1.59543 37962 ft 485 kts 356°
2026-05-04 11:41 42.75141 1.60536 37944 ft 483 kts 356°
2026-05-04 11:41 42.81870 1.60814 37946 ft 483 kts 356°
2026-05-04 11:42 42.88543 1.61094 37933 ft 482 kts 356°
2026-05-04 11:42 42.95238 1.61376 37923 ft 481 kts 356°
2026-05-04 11:43 43.01924 1.61653 37960 ft 481 kts 356°
2026-05-04 11:43 43.08615 1.61937 37938 ft 481 kts 356°
2026-05-04 11:44 43.15305 1.62223 37934 ft 481 kts 356°
2026-05-04 11:44 43.21999 1.62509 37945 ft 481 kts 357°
2026-05-04 11:45 43.28697 1.62794 37937 ft 481 kts 357°
2026-05-04 11:45 43.35388 1.63079 37945 ft 481 kts 357°
2026-05-04 11:46 43.42033 1.63364 37966 ft 481 kts 357°
2026-05-04 11:46 43.48719 1.63650 37949 ft 481 kts 357°
2026-05-04 11:47 43.55427 1.63938 37946 ft 482 kts 357°
2026-05-04 11:47 43.62138 1.64227 37962 ft 482 kts 357°
2026-05-04 11:48 43.68849 1.64516 37951 ft 482 kts 357°
2026-05-04 11:48 43.75564 1.64807 37942 ft 482 kts 357°
2026-05-04 11:49 43.82275 1.65098 37979 ft 483 kts 357°
2026-05-04 11:49 43.88961 1.65387 37952 ft 483 kts 357°
2026-05-04 11:50 43.95664 1.65680 37952 ft 482 kts 357°
2026-05-04 11:50 44.02379 1.65973 37968 ft 482 kts 358°
2026-05-04 11:51 44.09087 1.66267 37957 ft 481 kts 358°
2026-05-04 11:51 44.15742 1.66558 37954 ft 481 kts 358°
2026-05-04 11:52 44.22424 1.66852 37957 ft 480 kts 358°
2026-05-04 11:52 44.29101 1.67146 37951 ft 480 kts 358°
2026-05-04 11:53 44.35768 1.67440 37948 ft 479 kts 358°
2026-05-04 11:53 44.42428 1.67734 37970 ft 478 kts 358°
2026-05-04 11:55 44.69071 1.68919 37951 ft 479 kts 358°
2026-05-04 11:56 44.75741 1.69218 37956 ft 479 kts 358°
2026-05-04 11:56 44.82368 1.69514 37953 ft 480 kts 358°
2026-05-04 11:57 44.89046 1.69814 37951 ft 480 kts 358°
2026-05-04 11:57 44.95736 1.70116 37950 ft 480 kts 358°
2026-05-04 11:58 45.02426 1.70418 37946 ft 481 kts 358°
2026-05-04 11:58 45.09123 1.70722 37943 ft 481 kts 358°
2026-05-04 11:59 45.15819 1.71025 37950 ft 481 kts 358°
2026-05-04 11:59 45.22476 1.71328 37960 ft 482 kts 358°
2026-05-04 12:00 45.29197 1.71634 37941 ft 483 kts 358°
2026-05-04 12:00 45.35912 1.71941 37961 ft 483 kts 358°
2026-05-04 12:01 45.42646 1.72250 37957 ft 483 kts 358°
2026-05-04 12:02 45.65020 1.73280 37956 ft 482 kts 358°
2026-05-04 12:03 45.71733 1.73590 37957 ft 482 kts 358°
2026-05-04 12:03 45.78382 1.73899 37966 ft 481 kts 358°
2026-05-04 12:04 45.85074 1.74210 37957 ft 481 kts 358°
2026-05-04 12:04 45.91757 1.74522 37952 ft 480 kts 358°
2026-05-04 12:05 45.98425 1.74833 37966 ft 479 kts 359°
2026-05-04 12:05 46.05088 1.75145 37949 ft 479 kts 359°
2026-05-04 12:06 46.11745 1.75458 37957 ft 478 kts 359°
2026-05-04 12:06 46.18384 1.75770 37963 ft 477 kts 359°
2026-05-04 12:07 46.25018 1.76083 37951 ft 476 kts 359°
2026-05-04 12:07 46.31635 1.76396 37944 ft 475 kts 359°
2026-05-04 12:08 46.38199 1.76707 37958 ft 475 kts 359°
2026-05-04 12:08 46.44805 1.77021 37947 ft 474 kts 359°
2026-05-04 12:09 46.51408 1.77335 37949 ft 474 kts 359°
2026-05-04 12:09 46.58005 1.77650 37960 ft 474 kts 359°
2026-05-04 12:10 46.64605 1.77966 37971 ft 475 kts 359°
2026-05-04 12:10 46.71186 1.78281 37959 ft 476 kts 359°
2026-05-04 12:11 46.77815 1.78600 37967 ft 476 kts 359°
2026-05-04 12:11 46.84444 1.78920 37967 ft 476 kts 359°
2026-05-04 12:12 46.91071 1.79241 37970 ft 476 kts 359°
2026-05-04 12:12 46.97700 1.79562 37963 ft 476 kts 359°
2026-05-04 12:14 47.24218 1.80854 37949 ft 479 kts 360°
2026-05-04 12:15 47.30880 1.81182 37964 ft 478 kts 360°
2026-05-04 12:15 47.37516 1.81509 37963 ft 476 kts
2026-05-04 12:16 47.44123 1.81835 37957 ft 474 kts 360°
2026-05-04 12:16 47.50672 1.82159 37957 ft 472 kts 360°
2026-05-04 12:17 47.57225 1.82483 37958 ft 471 kts 360°
2026-05-04 12:17 47.63774 1.82808 37950 ft 470 kts
2026-05-04 12:18 47.70319 1.83134 37954 ft 470 kts
2026-05-04 12:18 47.76861 1.83461 37953 ft 471 kts
2026-05-04 12:19 47.83418 1.83789 37954 ft 472 kts
2026-05-04 12:19 47.90015 1.84119 37940 ft 475 kts
2026-05-04 12:20 47.96625 1.84452 37938 ft 475 kts
2026-05-04 12:20 48.03195 1.84784 37950 ft 476 kts
2026-05-04 12:21 48.09820 1.85119 37937 ft 476 kts
2026-05-04 12:21 48.16447 1.85455 37948 ft 476 kts
2026-05-04 12:22 48.23072 1.85792 37960 ft 476 kts
2026-05-04 12:22 48.29679 1.86129 37955 ft 475 kts
2026-05-04 12:23 48.36295 1.86467 37961 ft 475 kts
2026-05-04 12:23 48.42896 1.86805 37964 ft 474 kts
2026-05-04 12:24 48.49491 1.87144 37963 ft 474 kts
2026-05-04 12:24 48.56074 1.87483 37962 ft 473 kts
2026-05-04 12:25 48.62652 1.87823 37968 ft 473 kts
2026-05-04 12:25 48.69220 1.88163 37971 ft 471 kts
2026-05-04 12:26 48.75735 1.88501 37964 ft 471 kts
2026-05-04 12:26 48.82274 1.88841 37972 ft 470 kts
2026-05-04 12:27 48.88810 1.89182 37969 ft 470 kts
2026-05-04 12:27 48.95338 1.89524 37964 ft 469 kts
2026-05-04 12:28 49.01867 1.89866 37972 ft 469 kts
2026-05-04 12:28 49.08377 1.90208 37972 ft 469 kts
2026-05-04 12:29 49.14905 1.90553 37974 ft 469 kts
2026-05-04 12:29 49.21431 1.90898 37968 ft 469 kts
2026-05-04 12:30 49.27958 1.91244 37990 ft 469 kts
2026-05-04 12:30 49.34483 1.91591 37996 ft 469 kts
2026-05-04 12:31 49.41003 1.91938 37985 ft 468 kts
2026-05-04 12:31 49.47474 1.92343 37991 ft 469 kts
2026-05-04 12:32 49.50674 1.93333 38003 ft 470 kts 17°
2026-05-04 12:32 49.56491 1.97826 38006 ft 469 kts 36°
2026-05-04 12:33 49.61725 2.03834 37980 ft 469 kts 37°
2026-05-04 12:33 49.66944 2.09904 37994 ft 470 kts 37°
2026-05-04 12:34 49.72195 2.15932 37978 ft 470 kts 37°
2026-05-04 12:34 49.77418 2.21892 37983 ft 469 kts 37°
2026-05-04 12:35 49.82670 2.27890 37954 ft 468 kts 37°
2026-05-04 12:35 49.87910 2.33895 37975 ft 468 kts 37°
2026-05-04 12:36 49.93290 2.39611 37991 ft 468 kts 31°
2026-05-04 12:36 49.98906 2.44779 37995 ft 469 kts 30°
2026-05-04 12:37 50.04493 2.49886 37995 ft 469 kts 31°
2026-05-04 12:37 50.10093 2.55120 37977 ft 469 kts 31°
2026-05-04 12:38 50.15673 2.60408 37975 ft 470 kts 31°
2026-05-04 12:38 50.21279 2.65748 37457 ft 474 kts 32°
2026-05-04 12:38 50.24073 2.68413 37097 ft 467 kts 32°
2026-05-04 12:39 50.26827 2.71044 36681 ft 462 kts 32°
2026-05-04 12:39 50.29556 2.73653 36286 ft 457 kts 32°
2026-05-04 12:39 50.32224 2.76207 35909 ft 453 kts 32°
2026-05-04 12:39 50.34900 2.78772 35493 ft 449 kts 32°
2026-05-04 12:40 50.37550 2.81315 35090 ft 446 kts 32°
2026-05-04 12:40 50.40185 2.83847 34712 ft 443 kts 32°
2026-05-04 12:40 50.42807 2.86370 34327 ft 441 kts 33°
2026-05-04 12:40 50.45422 2.88891 33894 ft 442 kts 33°
2026-05-04 12:41 50.48039 2.91415 33446 ft 440 kts 33°
2026-05-04 12:41 50.50638 2.93926 33048 ft 437 kts 33°
2026-05-04 12:41 50.53216 2.96420 32657 ft 433 kts 33°
2026-05-04 12:41 50.55776 2.98900 32285 ft 430 kts 33°
2026-05-04 12:42 50.58318 3.01365 31914 ft 427 kts 33°
2026-05-04 12:42 50.60812 3.03787 31547 ft 425 kts 33°
2026-05-04 12:42 50.63326 3.06233 31192 ft 423 kts 33°
2026-05-04 12:42 50.65829 3.08670 30838 ft 422 kts 33°
2026-05-04 12:43 50.68323 3.11102 30466 ft 421 kts 33°
2026-05-04 12:43 50.70815 3.13535 30094 ft 420 kts 34°
2026-05-04 12:43 50.73298 3.15961 29655 ft 418 kts 34°
2026-05-04 12:43 50.75762 3.18371 29252 ft 414 kts 34°
2026-05-04 12:44 50.78201 3.20760 28866 ft 410 kts 34°
2026-05-04 12:44 50.80607 3.23120 28492 ft 405 kts 33°
2026-05-04 12:44 50.82992 3.25462 28114 ft 401 kts 33°
2026-05-04 12:44 50.85351 3.27782 27754 ft 397 kts 33°
2026-05-04 12:45 50.87681 3.30075 27369 ft 393 kts 33°
2026-05-04 12:45 50.89992 3.32354 27028 ft 389 kts 33°
2026-05-04 12:45 50.92251 3.34585 26677 ft 386 kts 33°
2026-05-04 12:45 50.94517 3.36825 26334 ft 383 kts 33°
2026-05-04 12:46 50.96771 3.39054 25992 ft 380 kts 33°
2026-05-04 12:46 50.99005 3.41268 25632 ft 377 kts 33°
2026-05-04 12:46 51.01224 3.43468 25288 ft 375 kts 33°
2026-05-04 12:46 51.03429 3.45657 24945 ft 372 kts 33°
2026-05-04 12:47 51.05613 3.47827 24582 ft 370 kts 33°
2026-05-04 12:47 51.07777 3.49980 24265 ft 367 kts 33°
2026-05-04 12:47 51.09938 3.52133 23925 ft 365 kts 33°
2026-05-04 12:47 51.12085 3.54274 23582 ft 363 kts 33°
2026-05-04 12:48 51.14216 3.56402 23188 ft 361 kts 33°
2026-05-04 12:48 51.15625 3.57810 22953 ft 360 kts 33°
2026-05-04 12:48 51.18460 3.60645 22519 ft 372 kts 33°
2026-05-04 12:48 51.20748 3.62940 22161 ft 405 kts 32°
2026-05-04 12:49 51.23294 3.65135 21710 ft 424 kts 19°
2026-05-04 12:49 51.26175 3.65901 21425 ft 418 kts
2026-05-04 12:49 51.28103 3.65929 21157 ft 419 kts 359°
2026-05-04 12:49 51.31025 3.65816 20741 ft 419 kts 357°
2026-05-04 12:50 51.33935 3.65643 20342 ft 417 kts 357°
2026-05-04 12:50 51.36822 3.65476 19948 ft 414 kts 357°
2026-05-04 12:50 51.39682 3.65336 19562 ft 410 kts 358°
2026-05-04 12:50 51.42522 3.65220 19177 ft 407 kts 358°
2026-05-04 12:51 51.45333 3.65194 18783 ft 401 kts
2026-05-04 12:51 51.48057 3.66047 18109 ft 401 kts 18°
2026-05-04 12:51 51.50636 3.67838 17058 ft 406 kts 28°
2026-05-04 12:51 51.52984 3.70335 16537 ft 401 kts 35°
2026-05-04 12:52 51.55254 3.72906 16063 ft 398 kts 34°
2026-05-04 12:52 51.57543 3.75480 15680 ft 406 kts 34°
2026-05-04 12:52 51.59880 3.78094 15276 ft 409 kts 34°
2026-05-04 12:52 51.62210 3.80692 14884 ft 406 kts 34°
2026-05-04 12:53 51.64497 3.83239 14491 ft 402 kts 34°
2026-05-04 12:53 51.66797 3.85806 14113 ft 400 kts 34°
2026-05-04 12:53 51.69060 3.88336 13680 ft 398 kts 34°
2026-05-04 12:53 51.71326 3.90859 13244 ft 394 kts 34°
2026-05-04 12:54 51.73568 3.93360 12874 ft 389 kts 34°
2026-05-04 12:54 51.75786 3.95839 12489 ft 387 kts 34°
2026-05-04 12:54 51.77992 3.98308 12096 ft 385 kts 34°
2026-05-04 12:54 51.80194 4.00779 11720 ft 384 kts 34°
2026-05-04 12:55 51.82387 4.03242 11348 ft 383 kts 34°
2026-05-04 12:55 51.84561 4.05687 10974 ft 383 kts 34°
2026-05-04 12:55 51.86663 4.08052 10593 ft 366 kts 34°
2026-05-04 12:55 51.88691 4.10337 10226 ft 344 kts 34°
2026-05-04 12:56 51.90597 4.12486 10042 ft 322 kts 35°
2026-05-04 12:56 51.92336 4.14582 9967 ft 301 kts 40°
2026-05-04 12:56 51.93855 4.16744 9889 ft 284 kts 42°
2026-05-04 12:56 51.95301 4.18899 9711 ft 279 kts 43°
2026-05-04 12:57 51.96719 4.21023 9597 ft 276 kts 43°
2026-05-04 12:57 51.98132 4.23130 9503 ft 275 kts 42°
2026-05-04 12:57 51.99544 4.25226 9396 ft 276 kts 42°
2026-05-04 12:57 52.00973 4.27336 9318 ft 280 kts 42°
2026-05-04 12:58 52.02428 4.29479 9187 ft 284 kts 42°
2026-05-04 12:58 52.03889 4.31626 9068 ft 283 kts 42°
2026-05-04 12:58 52.05350 4.33777 8999 ft 283 kts 41°
2026-05-04 12:58 52.06850 4.35862 8941 ft 282 kts 41°
2026-05-04 12:59 52.08320 4.38012 8740 ft 283 kts 41°
2026-05-04 12:59 52.09761 4.40155 8621 ft 274 kts 43°
2026-05-04 12:59 52.11145 4.42243 8534 ft 270 kts 42°
2026-05-04 12:59 52.12536 4.44316 8454 ft 271 kts 42°
2026-05-04 13:00 52.13931 4.46383 8359 ft 273 kts 42°
2026-05-04 13:00 52.15324 4.48442 8245 ft 274 kts 42°
2026-05-04 13:00 52.16739 4.50535 8156 ft 276 kts 42°
2026-05-04 13:00 52.18158 4.52632 8056 ft 276 kts 42°
2026-05-04 13:01 52.19579 4.54732 7953 ft 276 kts 42°
2026-05-04 13:01 52.21001 4.56837 7838 ft 276 kts 42°
2026-05-04 13:01 52.22420 4.58938 7742 ft 276 kts 42°
2026-05-04 13:01 52.23861 4.61074 7656 ft 282 kts 42°
2026-05-04 13:02 52.25308 4.63221 7551 ft 285 kts 42°
2026-05-04 13:02 52.26781 4.65409 7445 ft 286 kts 42°
2026-05-04 13:02 52.28256 4.67601 7340 ft 286 kts 42°
2026-05-04 13:02 52.29724 4.69784 7236 ft 287 kts 42°
2026-05-04 13:03 52.31192 4.71970 7136 ft 286 kts 42°
2026-05-04 13:03 52.32645 4.74135 7027 ft 285 kts 41°
2026-05-04 13:03 52.34122 4.76321 6793 ft 288 kts 41°
2026-05-04 13:03 52.35616 4.78501 6534 ft 286 kts 41°
2026-05-04 13:04 52.37068 4.80618 6270 ft 282 kts 41°
2026-05-04 13:04 52.38507 4.82720 5975 ft 271 kts 41°
2026-05-04 13:04 52.39805 4.84886 5706 ft 265 kts 57°
2026-05-04 13:04 52.40401 4.87695 5471 ft 261 kts 82°
2026-05-04 13:05 52.40539 4.90633 5232 ft 258 kts 88°
2026-05-04 13:05 52.40606 4.93537 4985 ft 255 kts 88°
2026-05-04 13:05 52.40678 4.96397 4740 ft 251 kts 88°
2026-05-04 13:05 52.40759 4.99272 4494 ft 251 kts 88°
2026-05-04 13:06 52.40846 5.02121 4254 ft 250 kts 88°
2026-05-04 13:06 52.40731 5.04937 3991 ft 249 kts 109°
2026-05-04 13:06 52.39785 5.07234 3771 ft 243 kts 142°
2026-05-04 13:06 52.38297 5.08344 3623 ft 230 kts 174°
2026-05-04 13:07 52.36763 5.08149 3451 ft 218 kts 198°
2026-05-04 13:07 52.35374 5.07192 3093 ft 216 kts 206°
2026-05-04 13:07 52.34031 5.06163 2765 ft 214 kts 208°
2026-05-04 13:07 52.32940 5.04601 2472 ft 205 kts 246°
2026-05-04 13:08 52.32688 5.02410 2335 ft 193 kts 267°
2026-05-04 13:08 52.32590 5.00259 2195 ft 185 kts 266°
2026-05-04 13:08 52.32503 4.98196 2063 ft 179 kts 267°
2026-05-04 13:08 52.32427 4.96135 1976 ft 185 kts 268°
2026-05-04 13:09 52.32350 4.94010 1746 ft 189 kts 267°
2026-05-04 13:09 52.32273 4.91867 1483 ft 191 kts 267°
2026-05-04 13:09 52.32195 4.89713 1225 ft 187 kts 267°
2026-05-04 13:09 52.32122 4.87680 1004 ft 177 kts 268°
2026-05-04 13:10 52.32054 4.85749 771 ft 167 kts 269°
2026-05-04 13:10 52.31981 4.83890 574 ft 159 kts 268°
2026-05-04 13:10 52.31927 4.82170 341 ft 148 kts 268°
2026-05-04 13:10 52.31863 4.80546 137 ft 142 kts 267°
2026-05-04 13:11 52.31810 4.78942 4 ft 141 kts 267°
2026-05-04 13:11 52.31764 4.77582 -3 ft 90 kts 266°
2026-05-04 13:11 52.31713 4.76952 -4 ft 31 kts 243°
2026-05-04 13:11 52.31615 4.76700 -2 ft 22 kts 237°
2026-05-04 13:12 52.31528 4.76514 -2 ft 19 kts 214°
2026-05-04 13:12 52.31466 4.76514 -2 ft 5 kts 98°
2026-05-04 13:12 52.31467 4.76581 -2 ft 7 kts 88°
2026-05-04 13:12 52.31470 4.76663 -2 ft 7 kts 87°
2026-05-04 13:13 52.31474 4.76781 -2 ft 16 kts 86°
2026-05-04 13:13 52.31480 4.76960 -2 ft 12 kts 87°
2026-05-04 13:13 52.31484 4.77091 -2 ft 12 kts 87°
2026-05-04 13:13 52.31453 4.77205 -2 ft 11 kts 127°
2026-05-04 13:14 52.31388 4.77330 -2 ft 20 kts 130°
2026-05-04 13:14 52.31264 4.77499 -2 ft 25 kts 169°
2026-05-04 13:14 52.31093 4.77491 -2 ft 24 kts 183°
2026-05-04 13:14 52.30934 4.77477 -2 ft 23 kts 183°
2026-05-04 13:15 52.30810 4.77467 -2 ft 15 kts 182°
2026-05-04 13:15 52.30709 4.77458 -2 ft 14 kts 183°
2026-05-04 13:15 52.30628 4.77388 -2 ft 14 kts 237°
2026-05-04 13:15 52.30574 4.77246 -2 ft 17 kts 238°
2026-05-04 13:16 52.30507 4.77069 -2 ft 19 kts 238°
2026-05-04 13:16 52.30446 4.76916 -2 ft 12 kts 238°
2026-05-04 13:16 52.30411 4.76826 -2 ft 8 kts 238°
2026-05-04 13:16 52.30409 4.76750 -2 ft 4 kts 322°
2026-05-04 13:17 52.30435 4.76732 -2 ft 4 kts 335°
2026-05-04 13:17 52.30453 4.76718 -2 ft 0 kts 335°
2026-05-04 13:17 52.30456 4.76716 -2 ft 0 kts 335°